Time,TemperatureF,DewpointF,PressureIn,WindDirection,WindDirectionDegrees,WindSpeedMPH,WindSpeedGustMPH,Humidity,HourlyPrecipIn,Conditions,Clouds,dailyrainin,SolarRadiationWatts/m^2,SoftwareType,DateUTC
2013-02-09 00:03:00,5.4,3.0,30.34,ESE,121,2.0,3.0,88,0.00,,,0.00,0,weatherlink.com 1.10,2013-02-09 06:03:00,
2013-02-09 00:18:00,3.7,1.0,30.36,ESE,121,1.0,2.0,86,0.00,,,0.00,0,weatherlink.com 1.10,2013-02-09 06:18:00,
2013-02-09 00:33:00,3.0,0.0,30.36,ESE,121,3.0,3.0,87,0.00,,,0.00,0,weatherlink.com 1.10,2013-02-09 06:33:00,
2013-02-09 00:48:00,7.7,6.0,30.36,SE,130,3.0,5.0,92,0.00,,,0.00,0,weatherlink.com 1.10,2013-02-09 06:48:00,
2013-02-09 01:03:00,13.2,11.0,30.36,SE,130,3.0,5.0,92,0.00,,,0.00,0,weatherlink.com 1.10,2013-02-09 07:03:00,
2013-02-09 01:18:00,13.3,11.0,30.36,SE,130,3.0,4.0,90,0.00,,,0.00,0,weatherlink.com 1.10,2013-02-09 07:18:00,
2013-02-09 01:33:00,14.1,12.0,30.36,SE,130,3.0,5.0,91,0.00,,,0.00,0,weatherlink.com 1.10,2013-02-09 07:33:00,
2013-02-09 01:48:00,14.7,13.0,30.35,SE,129,5.0,6.0,91,0.00,,,0.00,0,weatherlink.com 1.10,2013-02-09 07:48:00,
2013-02-09 02:03:00,15.0,13.0,30.36,SE,136,3.0,6.0,91,0.00,,,0.00,0,weatherlink.com 1.10,2013-02-09 08:03:00,
2013-02-09 02:18:00,15.6,14.0,30.35,SE,133,4.0,6.0,92,0.00,,,0.00,0,weatherlink.com 1.10,2013-02-09 08:18:00,
2013-02-09 02:33:00,16.3,14.0,30.35,SE,130,4.0,5.0,92,0.00,,,0.00,0,weatherlink.com 1.10,2013-02-09 08:33:00,
2013-02-09 02:48:00,16.6,15.0,30.34,SE,128,4.0,5.0,92,0.00,,,0.00,0,weatherlink.com 1.10,2013-02-09 08:48:00,
2013-02-09 03:04:00,16.8,15.0,30.35,SE,134,2.0,5.0,92,0.00,,,0.00,0,weatherlink.com 1.10,2013-02-09 09:04:00,
2013-02-09 03:19:00,17.2,15.0,30.34,SE,134,3.0,5.0,92,0.00,,,0.00,0,weatherlink.com 1.10,2013-02-09 09:19:00,
2013-02-09 03:34:00,17.5,16.0,30.34,SE,134,1.0,4.0,92,0.00,,,0.00,0,weatherlink.com 1.10,2013-02-09 09:34:00,
2013-02-09 03:49:00,17.8,16.0,30.33,ESE,120,5.0,5.0,92,0.00,,,0.00,0,weatherlink.com 1.10,2013-02-09 09:49:00,
2013-02-09 04:04:00,18.1,16.0,30.33,ESE,120,4.0,5.0,92,0.00,,,0.00,0,weatherlink.com 1.10,2013-02-09 10:04:00,
2013-02-09 04:19:00,18.5,17.0,30.33,SE,129,4.0,7.0,92,0.00,,,0.00,0,weatherlink.com 1.10,2013-02-09 10:19:00,
2013-02-09 04:34:00,19.0,17.0,30.33,SE,144,5.0,7.0,93,0.00,,,0.00,0,weatherlink.com 1.10,2013-02-09 10:34:00,
2013-02-09 04:49:00,19.6,18.0,30.34,SSE,161,4.0,7.0,93,0.00,,,0.00,0,weatherlink.com 1.10,2013-02-09 10:49:00,
2013-02-09 05:04:00,20.1,18.0,30.33,SSE,156,6.0,8.0,93,0.00,,,0.00,0,weatherlink.com 1.10,2013-02-09 11:04:00,
2013-02-09 05:19:00,20.4,19.0,30.33,SSE,150,6.0,10.0,93,0.00,,,0.00,0,weatherlink.com 1.10,2013-02-09 11:19:00,
2013-02-09 05:34:00,20.8,19.0,30.32,SSE,159,5.0,10.0,93,0.00,,,0.00,0,weatherlink.com 1.10,2013-02-09 11:34:00,
2013-02-09 05:49:00,21.0,19.0,30.32,SSE,149,7.0,9.0,93,0.00,,,0.00,0,weatherlink.com 1.10,2013-02-09 11:49:00,
2013-02-09 06:04:00,21.4,20.0,30.32,SSE,161,4.0,8.0,93,0.00,,,0.00,0,weatherlink.com 1.10,2013-02-09 12:04:00,
2013-02-09 06:20:00,21.6,20.0,30.33,SSE,164,7.0,8.0,93,0.00,,,0.00,0,weatherlink.com 1.10,2013-02-09 12:20:00,
2013-02-09 06:35:00,22.0,20.0,30.32,South,173,8.0,9.0,93,0.00,,,0.00,0,weatherlink.com 1.10,2013-02-09 12:35:00,
2013-02-09 06:50:00,22.2,21.0,30.32,SSE,162,5.0,11.0,94,0.00,,,0.00,0,weatherlink.com 1.10,2013-02-09 12:50:00,
2013-02-09 07:05:00,22.5,21.0,30.32,South,171,9.0,11.0,94,0.00,,,0.00,0,weatherlink.com 1.10,2013-02-09 13:05:00,
2013-02-09 07:20:00,22.6,21.0,30.32,South,174,11.0,15.0,94,0.00,,,0.00,9,weatherlink.com 1.10,2013-02-09 13:20:00,
2013-02-09 07:35:00,22.7,21.0,30.31,SSE,153,9.0,10.0,94,0.00,,,0.00,19,weatherlink.com 1.10,2013-02-09 13:35:00,
2013-02-09 07:50:00,22.8,21.0,30.32,South,172,8.0,12.0,94,0.00,,,0.00,33,weatherlink.com 1.10,2013-02-09 13:50:00,
2013-02-09 08:05:00,22.8,21.0,30.32,SSE,168,12.0,17.0,94,0.00,,,0.00,56,weatherlink.com 1.10,2013-02-09 14:05:00,
2013-02-09 08:20:00,23.0,22.0,30.31,South,176,11.0,19.0,94,0.00,,,0.00,77,weatherlink.com 1.10,2013-02-09 14:20:00,
2013-02-09 08:35:00,23.2,22.0,30.30,South,177,13.0,17.0,94,0.00,,,0.00,95,weatherlink.com 1.10,2013-02-09 14:35:00,
2013-02-09 08:50:00,23.5,22.0,30.30,South,173,15.0,22.0,93,0.00,,,0.00,125,weatherlink.com 1.10,2013-02-09 14:50:00,
2013-02-09 09:05:00,23.8,22.0,30.30,SSE,158,12.0,19.0,93,0.00,,,0.00,142,weatherlink.com 1.10,2013-02-09 15:05:00,
2013-02-09 09:20:00,24.0,22.0,30.30,South,177,18.0,21.0,92,0.00,,,0.00,176,weatherlink.com 1.10,2013-02-09 15:20:00,
2013-02-09 09:36:00,24.4,22.0,30.29,South,175,17.0,22.0,91,0.00,,,0.00,207,weatherlink.com 1.10,2013-02-09 15:36:00,
2013-02-09 09:51:00,24.7,22.0,30.29,South,183,22.0,22.0,90,0.00,,,0.00,225,weatherlink.com 1.10,2013-02-09 15:51:00,
2013-02-09 10:06:00,24.9,22.0,30.27,South,169,14.0,23.0,90,0.00,,,0.00,267,weatherlink.com 1.10,2013-02-09 16:06:00,
2013-02-09 10:21:00,25.2,23.0,30.27,South,176,22.0,24.0,90,0.00,,,0.00,292,weatherlink.com 1.10,2013-02-09 16:21:00,
2013-02-09 10:36:00,25.6,23.0,30.27,South,186,19.0,25.0,89,0.00,,,0.00,323,weatherlink.com 1.10,2013-02-09 16:36:00,
2013-02-09 10:51:00,26.0,23.0,30.25,SSE,163,24.0,28.0,89,0.00,,,0.00,378,weatherlink.com 1.10,2013-02-09 16:51:00,
2013-02-09 11:05:00,26.3,24.0,30.25,SSE,157,15.0,27.0,89,0.00,,,0.00,369,weatherlink.com 1.10,2013-02-09 17:05:00,
2013-02-09 11:20:00,26.6,24.0,30.22,SSE,150,18.0,22.0,89,0.00,,,0.00,422,weatherlink.com 1.10,2013-02-09 17:20:00,
2013-02-09 11:35:00,26.7,24.0,30.22,SSE,164,20.0,29.0,89,0.00,,,0.00,429,weatherlink.com 1.10,2013-02-09 17:35:00,
2013-02-09 11:50:00,27.0,24.0,30.22,South,181,22.0,29.0,89,0.00,,,0.00,403,weatherlink.com 1.10,2013-02-09 17:50:00,
2013-02-09 12:06:00,27.0,24.0,30.22,South,176,19.0,26.0,89,0.00,,,0.00,366,weatherlink.com 1.10,2013-02-09 18:06:00,
2013-02-09 12:21:00,27.5,25.0,30.22,South,180,17.0,22.0,89,0.00,,,0.00,357,weatherlink.com 1.10,2013-02-09 18:21:00,
2013-02-09 12:36:00,27.6,25.0,30.22,SSW,192,17.0,22.0,88,0.00,,,0.00,362,weatherlink.com 1.10,2013-02-09 18:36:00,
2013-02-09 12:51:00,27.7,24.0,30.21,SSE,168,13.0,20.0,87,0.00,,,0.00,323,weatherlink.com 1.10,2013-02-09 18:51:00,
2013-02-09 13:06:00,28.0,25.0,30.21,South,184,12.0,16.0,88,0.00,,,0.00,308,weatherlink.com 1.10,2013-02-09 19:06:00,
2013-02-09 13:21:00,28.2,25.0,30.20,South,186,17.0,20.0,87,0.00,,,0.00,315,weatherlink.com 1.10,2013-02-09 19:21:00,
2013-02-09 13:36:00,28.4,25.0,30.20,South,183,15.0,17.0,87,0.00,,,0.00,302,weatherlink.com 1.10,2013-02-09 19:36:00,
2013-02-09 13:51:00,28.5,25.0,30.19,South,182,17.0,19.0,86,0.00,,,0.00,274,weatherlink.com 1.10,2013-02-09 19:51:00,
2013-02-09 14:06:00,28.6,25.0,30.19,SSE,165,12.0,16.0,87,0.00,,,0.00,271,weatherlink.com 1.10,2013-02-09 20:06:00,
2013-02-09 14:21:00,28.8,25.0,30.19,South,175,9.0,15.0,87,0.00,,,0.00,262,weatherlink.com 1.10,2013-02-09 20:21:00,
2013-02-09 14:36:00,28.9,26.0,30.18,South,180,16.0,16.0,87,0.00,,,0.00,204,weatherlink.com 1.10,2013-02-09 20:36:00,
2013-02-09 14:51:00,29.0,26.0,30.17,South,172,9.0,17.0,87,0.00,,,0.00,229,weatherlink.com 1.10,2013-02-09 20:51:00,
2013-02-09 15:06:00,29.0,26.0,30.16,South,178,14.0,16.0,87,0.00,,,0.00,209,weatherlink.com 1.10,2013-02-09 21:06:00,
2013-02-09 15:21:00,29.1,26.0,30.15,SSE,157,14.0,15.0,87,0.00,,,0.00,188,weatherlink.com 1.10,2013-02-09 21:21:00,
2013-02-09 15:37:00,29.0,26.0,30.14,South,170,14.0,20.0,87,0.00,,,0.00,146,weatherlink.com 1.10,2013-02-09 21:37:00,
2013-02-09 15:52:00,29.0,26.0,30.14,SSE,149,13.0,16.0,88,0.00,,,0.00,144,weatherlink.com 1.10,2013-02-09 21:52:00,
2013-02-09 16:07:00,28.9,26.0,30.13,SE,146,15.0,18.0,87,0.00,,,0.00,134,weatherlink.com 1.10,2013-02-09 22:07:00,
2013-02-09 16:22:00,28.9,26.0,30.12,SSE,155,13.0,19.0,88,0.00,,,0.00,77,weatherlink.com 1.10,2013-02-09 22:22:00,
2013-02-09 16:37:00,29.0,26.0,30.12,SSE,154,13.0,19.0,88,0.00,,,0.00,42,weatherlink.com 1.10,2013-02-09 22:37:00,
2013-02-09 16:52:00,29.0,26.0,30.12,SE,142,15.0,17.0,88,0.00,,,0.00,21,weatherlink.com 1.10,2013-02-09 22:52:00,
2013-02-09 17:07:00,29.2,26.0,30.11,SSE,148,10.0,16.0,87,0.00,,,0.00,9,weatherlink.com 1.10,2013-02-09 23:07:00,
2013-02-09 17:22:00,29.2,26.0,30.11,SE,136,11.0,13.0,88,0.00,,,0.00,5,weatherlink.com 1.10,2013-02-09 23:22:00,
2013-02-09 17:37:00,29.3,26.0,30.11,SSE,151,14.0,14.0,88,0.00,,,0.00,0,weatherlink.com 1.10,2013-02-09 23:37:00,
2013-02-09 17:52:00,29.4,26.0,30.10,SE,138,7.0,19.0,87,0.00,,,0.00,0,weatherlink.com 1.10,2013-02-09 23:52:00,
2013-02-09 18:07:00,29.3,26.0,30.09,SE,136,8.0,16.0,87,0.00,,,0.00,0,weatherlink.com 1.10,2013-02-10 00:07:00,
2013-02-09 18:22:00,29.3,26.0,30.10,SE,135,9.0,14.0,88,0.00,,,0.00,0,weatherlink.com 1.10,2013-02-10 00:22:00,
2013-02-09 18:37:00,29.2,26.0,30.09,SE,130,10.0,16.0,88,0.00,,,0.00,0,weatherlink.com 1.10,2013-02-10 00:37:00,
2013-02-09 18:52:00,29.1,26.0,30.09,SE,132,11.0,15.0,89,0.00,,,0.00,0,weatherlink.com 1.10,2013-02-10 00:52:00,
2013-02-09 19:08:00,29.4,27.0,30.09,SE,135,10.0,16.0,89,0.00,,,0.00,0,weatherlink.com 1.10,2013-02-10 01:08:00,
2013-02-09 19:23:00,29.5,27.0,30.09,ESE,121,11.0,14.0,89,0.00,,,0.00,0,weatherlink.com 1.10,2013-02-10 01:23:00,
2013-02-09 19:38:00,29.7,27.0,30.08,SE,140,15.0,17.0,89,0.00,,,0.00,0,weatherlink.com 1.10,2013-02-10 01:38:00,
2013-02-09 19:53:00,29.8,27.0,30.08,SE,136,12.0,18.0,89,0.00,,,0.00,0,weatherlink.com 1.10,2013-02-10 01:53:00,
2013-02-09 20:08:00,29.9,27.0,30.08,SE,144,22.0,22.0,89,0.00,,,0.00,0,weatherlink.com 1.10,2013-02-10 02:08:00,
2013-02-09 20:23:00,29.6,27.0,30.08,SE,144,15.0,19.0,89,0.00,,,0.00,0,weatherlink.com 1.10,2013-02-10 02:23:00,
2013-02-09 20:38:00,28.8,26.0,30.07,SE,142,13.0,18.0,90,0.00,,,0.00,0,weatherlink.com 1.10,2013-02-10 02:38:00,
2013-02-09 20:53:00,27.7,25.0,30.07,SE,136,12.0,15.0,90,0.00,,,0.00,0,weatherlink.com 1.10,2013-02-10 02:53:00,
2013-02-09 21:08:00,27.3,25.0,30.06,SE,131,9.0,13.0,91,0.00,,,0.00,0,weatherlink.com 1.10,2013-02-10 03:08:00,
2013-02-09 21:23:00,25.6,23.0,30.06,ESE,123,11.0,12.0,91,0.00,,,0.00,0,weatherlink.com 1.10,2013-02-10 03:23:00,
2013-02-09 21:38:00,24.3,22.0,30.06,ESE,115,8.0,11.0,92,0.00,,,0.00,0,weatherlink.com 1.10,2013-02-10 03:38:00,
2013-02-09 21:53:00,24.2,22.0,30.05,ESE,114,7.0,9.0,92,0.00,,,0.00,0,weatherlink.com 1.10,2013-02-10 03:53:00,
2013-02-09 22:08:00,22.1,20.0,30.04,ESE,111,7.0,8.0,91,0.00,,,0.00,0,weatherlink.com 1.10,2013-02-10 04:08:00,
2013-02-09 22:24:00,22.6,21.0,30.03,ESE,112,7.0,8.0,93,0.00,,,0.00,0,weatherlink.com 1.10,2013-02-10 04:24:00,
2013-02-09 22:39:00,22.3,20.0,30.03,ESE,112,8.0,8.0,92,0.00,,,0.00,0,weatherlink.com 1.10,2013-02-10 04:39:00,
2013-02-09 22:54:00,22.4,21.0,30.03,ESE,113,8.0,9.0,93,0.00,,,0.00,0,weatherlink.com 1.10,2013-02-10 04:54:00,
2013-02-09 23:09:00,22.5,21.0,30.02,ESE,113,5.0,9.0,93,0.00,,,0.00,0,weatherlink.com 1.10,2013-02-10 05:09:00,
2013-02-09 23:24:00,21.6,20.0,30.02,ESE,113,2.0,5.0,93,0.00,,,0.00,0,weatherlink.com 1.10,2013-02-10 05:24:00,
2013-02-09 23:39:00,21.0,19.0,30.02,ESE,113,3.0,7.0,92,0.00,,,0.00,0,weatherlink.com 1.10,2013-02-10 05:39:00,
2013-02-09 23:54:00,21.7,20.0,30.01,ESE,113,5.0,7.0,94,0.00,,,0.00,0,weatherlink.com 1.10,2013-02-10 05:54:00,